,,,PA_Meas_PMT16A,,PR_Meas_QMR101_102,,RH_Meas_QMH101,,SR_Meas_QMS101,,TA_Meas_QMH101,,GenWind,,GenWind,
date,time,status,PA,status,PR,status,RH,status,SR,status,TA,status,DirAvg,status,SpdAvg,
2010-06-30, 00:00:05,VALID,1000.87,VALID,0,VALID,92.3871,VALID,0,VALID,23.3908,VALID,57,VALID,0.479297,
2010-06-30, 00:01:05,VALID,1000.87,VALID,0,VALID,92.3337,VALID,0,VALID,23.4103,VALID,57,VALID,0.59375,
2010-06-30, 00:02:05,VALID,1000.87,VALID,0,VALID,92.265,VALID,0,VALID,23.4103,VALID,42,VALID,0.696484,
2010-06-30, 00:03:05,VALID,1000.87,VALID,0,VALID,92.1811,VALID,0,VALID,23.389,VALID,38,VALID,0.74375,
2010-06-30, 00:04:05,VALID,1000.82,VALID,0,VALID,92.0437,VALID,0,VALID,23.389,VALID,27,VALID,0.748828,
2010-06-30, 00:05:05,VALID,1000.8,VALID,0,VALID,91.7767,VALID,0,VALID,23.3695,VALID,12,VALID,0.699609,
2010-06-30, 00:06:05,VALID,1000.81,VALID,0,VALID,91.8759,VALID,0,VALID,23.3695,VALID,12,VALID,0.770703,
2010-06-30, 00:07:05,VALID,1000.79,VALID,0,VALID,91.6699,VALID,0,VALID,23.311,VALID,12,VALID,0.429297,
2010-06-30, 00:08:05,VALID,1000.8,VALID,0,VALID,91.8148,VALID,0,VALID,23.311,VALID,12,VALID,0.403125,
2010-06-30, 00:09:05,VALID,1000.83,VALID,0,VALID,91.7767,VALID,0,VALID,23.2915,VALID,12,VALID,0.214453,
2010-06-30, 00:10:05,VALID,1000.83,VALID,0,VALID,91.7004,VALID,0,VALID,23.2524,VALID,12,VALID,0,
2010-06-30, 00:11:05,VALID,1000.83,VALID,0,VALID,91.6165,VALID,0,VALID,23.1939,VALID,12,VALID,0,
2010-06-30, 00:12:05,VALID,1000.78,VALID,0,VALID,91.1129,VALID,0,VALID,23.1159,VALID,12,VALID,0,
2010-06-30, 00:13:05,VALID,1000.78,VALID,0,VALID,91.0977,VALID,0,VALID,23.0769,VALID,12,VALID,0,
2010-06-30, 00:14:05,VALID,1000.76,VALID,0,VALID,91.6775,VALID,0,VALID,23.0573,VALID,12,VALID,0.0289063,
2010-06-30, 00:15:05,VALID,1000.78,VALID,0,VALID,92.2421,VALID,0,VALID,23.1159,VALID,12,VALID,0.286719,
2010-06-30, 00:16:05,VALID,1000.8,VALID,0,VALID,92.3871,VALID,0,VALID,23.1354,VALID,12,VALID,0.389062,
2010-06-30, 00:17:05,VALID,1000.83,VALID,0,VALID,92.4252,VALID,0,VALID,23.1354,VALID,12,VALID,0,
2010-06-30, 00:18:05,VALID,1000.84,VALID,0,VALID,92.4328,VALID,0,VALID,23.1549,VALID,12,VALID,0.00078125,
2010-06-30, 00:19:05,VALID,1000.82,VALID,0,VALID,92.5397,VALID,0,VALID,23.1939,VALID,12,VALID,0.591797,
2010-06-30, 00:20:05,VALID,1000.81,VALID,0,VALID,92.3718,VALID,0,VALID,23.2524,VALID,46,VALID,0.670313,
2010-06-30, 00:21:05,VALID,1000.82,VALID,0,VALID,92.2574,VALID,0,VALID,23.311,VALID,46,VALID,0.601563,
2010-06-30, 00:22:05,VALID,1000.79,VALID,0,VALID,91.853,VALID,0,VALID,23.35,VALID,59,VALID,0.690625,
2010-06-30, 00:23:05,VALID,1000.77,VALID,0,VALID,91.6165,VALID,0,VALID,23.3695,VALID,59,VALID,0.489844,
2010-06-30, 00:24:05,VALID,1000.71,VALID,0,VALID,91.3876,VALID,0,VALID,23.4085,VALID,59,VALID,0.426172,
2010-06-30, 00:25:05,VALID,1000.73,VALID,0,VALID,91.2503,VALID,0,VALID,23.4298,VALID,59,VALID,0.317187,
2010-06-30, 00:26:05,VALID,1000.7,VALID,0,VALID,91.0443,VALID,0,VALID,23.389,VALID,59,VALID,0.285156,
2010-06-30, 00:27:05,VALID,1000.73,VALID,0,VALID,90.9756,VALID,0,VALID,23.3695,VALID,59,VALID,0.275391,
2010-06-30, 00:28:05,VALID,1000.7,VALID,0,VALID,91.1206,VALID,0,VALID,23.3305,VALID,59,VALID,0.404297,
2010-06-30, 00:29:05,VALID,1000.67,VALID,0,VALID,91.4486,VALID,0,VALID,23.3305,VALID,59,VALID,0.449609,
2010-06-30, 00:30:05,VALID,1000.67,VALID,0,VALID,91.4639,VALID,0,VALID,23.311,VALID,59,VALID,0.517187,
2010-06-30, 00:31:05,VALID,1000.67,VALID,0,VALID,91.4563,VALID,0,VALID,23.2915,VALID,59,VALID,0.570703,
2010-06-30, 00:32:05,VALID,1000.62,VALID,0,VALID,91.2121,VALID,0,VALID,23.311,VALID,59,VALID,0.682813,
2010-06-30, 00:33:05,VALID,1000.63,VALID,0,VALID,90.7238,VALID,0,VALID,23.311,VALID,59,VALID,0.549609,
2010-06-30, 00:34:05,VALID,1000.58,VALID,0,VALID,90.7391,VALID,0,VALID,23.311,VALID,59,VALID,0.476953,
2010-06-30, 00:35:05,VALID,1000.59,VALID,0,VALID,90.7314,VALID,0,VALID,23.3305,VALID,59,VALID,0.462109,
2010-06-30, 00:36:05,VALID,1000.56,VALID,0,VALID,90.4797,VALID,0,VALID,23.35,VALID,59,VALID,0.403125,
2010-06-30, 00:37:05,VALID,1000.57,VALID,0,VALID,90.2279,VALID,0,VALID,23.3323,VALID,59,VALID,0.425,
2010-06-30, 00:38:05,VALID,1000.57,VALID,0,VALID,90.0906,VALID,0,VALID,23.2932,VALID,59,VALID,0.238281,
2010-06-30, 00:39:05,VALID,1000.53,VALID,0,VALID,90.3728,VALID,0,VALID,23.2524,VALID,59,VALID,0.270703,
2010-06-30, 00:40:05,VALID,1000.54,VALID,0,VALID,90.5788,VALID,0,VALID,23.2329,VALID,59,VALID,0.230078,
2010-06-30, 00:41:05,VALID,1000.53,VALID,0,VALID,90.6017,VALID,0,VALID,23.2134,VALID,59,VALID,0.0773437,
2010-06-30, 00:42:05,VALID,1000.56,VALID,0,VALID,90.7849,VALID,0,VALID,23.1549,VALID,59,VALID,0.0476562,
2010-06-30, 00:43:05,VALID,1000.52,VALID,0,VALID,90.8077,VALID,0,VALID,23.1744,VALID,59,VALID,0.0441406,
2010-06-30, 00:44:05,VALID,1000.52,VALID,0,VALID,90.7467,VALID,0,VALID,23.1549,VALID,59,VALID,0.04375,
2010-06-30, 00:45:05,VALID,1000.53,VALID,0,VALID,90.6628,VALID,0,VALID,23.1354,VALID,59,VALID,0.00273437,
2010-06-30, 00:46:05,VALID,1000.53,VALID,0,VALID,90.5788,VALID,0,VALID,23.1159,VALID,59,VALID,0,
2010-06-30, 00:47:05,VALID,1000.54,VALID,0,VALID,90.5788,VALID,0,VALID,23.0964,VALID,59,VALID,0,
2010-06-30, 00:48:05,VALID,1000.53,VALID,0,VALID,90.823,VALID,0,VALID,23.0964,VALID,67,VALID,0.377344,
2010-06-30, 00:49:05,VALID,1000.55,VALID,0,VALID,90.8611,VALID,0,VALID,23.0964,VALID,73,VALID,0.693359,
2010-06-30, 00:50:05,VALID,1000.55,VALID,0,VALID,90.7162,VALID,0,VALID,23.0964,VALID,76,VALID,0.400391,
2010-06-30, 00:51:05,VALID,1000.51,VALID,0,VALID,90.7925,VALID,0,VALID,23.1354,VALID,76,VALID,0.325,
2010-06-30, 00:52:05,VALID,1000.49,VALID,0,VALID,90.6475,VALID,0,VALID,23.1354,VALID,76,VALID,0.418359,
2010-06-30, 00:53:05,VALID,1000.52,VALID,0,VALID,90.5712,VALID,0,VALID,23.1354,VALID,76,VALID,0.61875,
2010-06-30, 00:54:05,VALID,1000.53,VALID,0,VALID,90.6551,VALID,0,VALID,23.1744,VALID,76,VALID,0.569141,
2010-06-30, 00:55:05,VALID,1000.56,VALID,0,VALID,90.556,VALID,0,VALID,23.2524,VALID,76,VALID,0.439453,
2010-06-30, 00:56:05,VALID,1000.57,VALID,0,VALID,89.9914,VALID,0,VALID,23.2915,VALID,76,VALID,0.402734,
2010-06-30, 00:57:05,VALID,1000.62,VALID,0,VALID,89.587,VALID,0,VALID,23.3323,VALID,84,VALID,0.428516,
2010-06-30, 00:58:05,VALID,1000.62,VALID,0,VALID,89.5641,VALID,0,VALID,23.311,VALID,84,VALID,0.4875,
2010-06-30, 00:59:05,VALID,1000.63,VALID,0,VALID,89.3123,VALID,0,VALID,23.3127,VALID,84,VALID,0.292578,
2010-06-30, 01:00:05,VALID,1000.66,VALID,0,VALID,89.648,VALID,0,VALID,23.2719,VALID,84,VALID,0.0738281,
2010-06-30, 01:01:05,VALID,1000.62,VALID,0,VALID,89.999,VALID,0,VALID,23.2329,VALID,84,VALID,0,
2010-06-30, 01:02:05,VALID,1000.61,VALID,0,VALID,90.0524,VALID,0,VALID,23.1939,VALID,84,VALID,0,
2010-06-30, 01:03:05,VALID,1000.62,VALID,0,VALID,90.2813,VALID,0,VALID,23.1744,VALID,84,VALID,0,
2010-06-30, 01:04:05,VALID,1000.59,VALID,0,VALID,90.7772,VALID,0,VALID,23.1336,VALID,84,VALID,0.230078,
2010-06-30, 01:05:05,VALID,1000.58,VALID,0,VALID,90.9298,VALID,0,VALID,23.1744,VALID,84,VALID,0.405859,
2010-06-30, 01:06:05,VALID,1000.58,VALID,0,VALID,90.8764,VALID,0,VALID,23.1744,VALID,84,VALID,0.401563,
2010-06-30, 01:07:05,VALID,1000.57,VALID,0,VALID,90.8306,VALID,0,VALID,23.2134,VALID,84,VALID,0.525391,
2010-06-30, 01:08:05,VALID,1000.56,VALID,0,VALID,90.5941,VALID,0,VALID,23.2915,VALID,84,VALID,0.400781,
2010-06-30, 01:09:05,VALID,1000.53,VALID,0,VALID,90.2355,VALID,0,VALID,23.3305,VALID,84,VALID,0.269141,
2010-06-30, 01:10:05,VALID,1000.49,VALID,0,VALID,89.854,VALID,0,VALID,23.35,VALID,84,VALID,0.203125,
2010-06-30, 01:11:05,VALID,1000.42,VALID,0,VALID,89.732,VALID,0,VALID,23.3695,VALID,84,VALID,0.281641,
2010-06-30, 01:12:05,VALID,1000.38,VALID,0,VALID,89.6328,VALID,0,VALID,23.3695,VALID,84,VALID,0,
2010-06-30, 01:13:05,VALID,1000.36,VALID,0,VALID,89.5107,VALID,0,VALID,23.3695,VALID,84,VALID,0,
2010-06-30, 01:14:05,VALID,1000.31,VALID,0,VALID,89.5412,VALID,0,VALID,23.389,VALID,84,VALID,0,
2010-06-30, 01:15:05,VALID,1000.3,VALID,0,VALID,89.4573,VALID,0,VALID,23.3695,VALID,84,VALID,0,
2010-06-30, 01:16:05,VALID,1000.28,VALID,0,VALID,89.3123,VALID,0,VALID,23.389,VALID,84,VALID,0,
2010-06-30, 01:17:05,VALID,1000.22,VALID,0,VALID,89.2132,VALID,0,VALID,23.4085,VALID,84,VALID,0,
2010-06-30, 01:18:05,VALID,1000.24,VALID,0,VALID,89.0453,VALID,0,VALID,23.4493,VALID,84,VALID,0.471875,
2010-06-30, 01:19:05,VALID,1000.2,VALID,0,VALID,88.8088,VALID,0,VALID,23.4866,VALID,79,VALID,0.666797,
2010-06-30, 01:20:05,VALID,1000.26,VALID,0,VALID,87.9314,VALID,0,VALID,23.5256,VALID,68,VALID,1.19258,
2010-06-30, 01:21:05,VALID,1000.27,VALID,0,VALID,86.9929,VALID,0,VALID,23.5646,VALID,79,VALID,0.969922,
2010-06-30, 01:22:05,VALID,1000.27,VALID,0,VALID,86.9624,VALID,0,VALID,23.5451,VALID,46,VALID,1.04414,
2010-06-30, 01:23:05,VALID,1000.3,VALID,0,VALID,88.0306,VALID,0,VALID,23.4475,VALID,42,VALID,1.14883,
2010-06-30, 01:24:05,VALID,1000.3,VALID,0,VALID,88.5799,VALID,0,VALID,23.35,VALID,41,VALID,1.30742,
2010-06-30, 01:25:05,VALID,1000.3,VALID,0,VALID,89.0453,VALID,0,VALID,23.2719,VALID,36,VALID,1.67383,
2010-06-30, 01:26:05,VALID,1000.33,VALID,0,VALID,88.9461,VALID,0,VALID,23.2329,VALID,31,VALID,1.86055,
2010-06-30, 01:27:05,VALID,1000.3,VALID,0,VALID,89.6404,VALID,0,VALID,23.1549,VALID,29,VALID,2.02813,
2010-06-30, 01:28:05,VALID,1000.32,VALID,0,VALID,89.938,VALID,0,VALID,23.1159,VALID,42,VALID,1.75117,
2010-06-30, 01:29:05,VALID,1000.3,VALID,0,VALID,90.3271,VALID,0,VALID,23.0556,VALID,42,VALID,1.58984,
2010-06-30, 01:30:05,VALID,1000.3,VALID,0,VALID,90.7009,VALID,0,VALID,23.0573,VALID,37,VALID,1.59219,
2010-06-30, 01:31:05,VALID,1000.27,VALID,0,VALID,90.7314,VALID,0,VALID,22.9988,VALID,35,VALID,0.914844,
2010-06-30, 01:32:05,VALID,1000.26,VALID,0,VALID,90.8459,VALID,0,VALID,23.0006,VALID,35,VALID,0.782422,
2010-06-30, 01:33:05,VALID,1000.21,VALID,0,VALID,90.8077,VALID,0,VALID,22.9615,VALID,35,VALID,0.848828,
2010-06-30, 01:34:05,VALID,1000.24,VALID,0,VALID,91.0214,VALID,0,VALID,22.8818,VALID,35,VALID,0.725781,
2010-06-30, 01:35:05,VALID,1000.25,VALID,0,VALID,91.3342,VALID,0,VALID,22.8818,VALID,35,VALID,0.733594,
2010-06-30, 01:36:05,VALID,1000.26,VALID,0,VALID,91.5478,VALID,0,VALID,22.8623,VALID,44,VALID,0.839844,
2010-06-30, 01:37:05,VALID,1000.28,VALID,0,VALID,91.6851,VALID,0,VALID,22.8623,VALID,58,VALID,0.578906,
2010-06-30, 01:38:05,VALID,1000.3,VALID,0,VALID,91.9674,VALID,0,VALID,22.8427,VALID,58,VALID,0.721875,
2010-06-30, 01:39:05,VALID,1000.3,VALID,0,VALID,92.1124,VALID,0,VALID,22.8427,VALID,61,VALID,0.815234,
2010-06-30, 01:40:05,VALID,1000.34,VALID,0,VALID,92.0514,VALID,0,VALID,22.903,VALID,62,VALID,1.08164,
2010-06-30, 01:41:05,VALID,1000.35,VALID,0,VALID,91.6623,VALID,0,VALID,22.8623,VALID,62,VALID,0.923047,
2010-06-30, 01:42:05,VALID,1000.35,VALID,0,VALID,91.6317,VALID,0,VALID,22.8623,VALID,67,VALID,0.863281,
2010-06-30, 01:43:05,VALID,1000.39,VALID,0,VALID,91.5173,VALID,0,VALID,22.8623,VALID,69,VALID,0.841016,
2010-06-30, 01:44:05,VALID,1000.42,VALID,0,VALID,91.5402,VALID,0,VALID,22.8623,VALID,70,VALID,0.948047,
2010-06-30, 01:45:05,VALID,1000.43,VALID,0,VALID,91.3418,VALID,0,VALID,22.8427,VALID,71,VALID,0.882422,
2010-06-30, 01:46:05,VALID,1000.43,VALID,0,VALID,91.3723,VALID,0,VALID,22.8232,VALID,71,VALID,0.826953,
2010-06-30, 01:47:05,VALID,1000.41,VALID,0,VALID,91.3266,VALID,0,VALID,22.8623,VALID,72,VALID,0.753906,
2010-06-30, 01:48:05,VALID,1000.43,VALID,0,VALID,91.2503,VALID,0,VALID,22.8623,VALID,86,VALID,0.63125,
2010-06-30, 01:49:05,VALID,1000.41,VALID,0,VALID,91.235,VALID,0,VALID,22.8623,VALID,97,VALID,0.489453,
2010-06-30, 01:50:05,VALID,1000.4,VALID,0,VALID,91.2197,VALID,0,VALID,22.8623,VALID,97,VALID,0.196875,
2010-06-30, 01:51:05,VALID,1000.4,VALID,0,VALID,91.2121,VALID,0,VALID,22.8835,VALID,97,VALID,0.149609,
2010-06-30, 01:52:05,VALID,1000.39,VALID,0,VALID,91.1892,VALID,0,VALID,22.8818,VALID,97,VALID,0.180469,
2010-06-30, 01:53:05,VALID,1000.43,VALID,0,VALID,91.1587,VALID,0,VALID,22.8818,VALID,97,VALID,0,
2010-06-30, 01:54:05,VALID,1000.44,VALID,0,VALID,91.235,VALID,0,VALID,22.9208,VALID,97,VALID,0.124609,
2010-06-30, 01:55:05,VALID,1000.45,VALID,0,VALID,91.1816,VALID,0,VALID,22.9208,VALID,97,VALID,0.0574219,
2010-06-30, 01:56:05,VALID,1000.49,VALID,0,VALID,91.2197,VALID,0,VALID,22.9598,VALID,97,VALID,0.33125,
2010-06-30, 01:57:05,VALID,1000.5,VALID,0,VALID,91.1434,VALID,0,VALID,23.0183,VALID,111,VALID,0.507813,
2010-06-30, 01:58:05,VALID,1000.53,VALID,0,VALID,90.8077,VALID,0,VALID,23.0378,VALID,141,VALID,0.724219,
2010-06-30, 01:59:05,VALID,1000.53,VALID,0,VALID,90.1592,VALID,0,VALID,23.0769,VALID,154,VALID,0.757031,
2010-06-30, 02:00:05,VALID,1000.57,VALID,0,VALID,89.999,VALID,0,VALID,23.1549,VALID,159,VALID,1.37812,
2010-06-30, 02:01:05,VALID,1000.6,VALID,0,VALID,89.5031,VALID,0,VALID,23.311,VALID,161,VALID,1.28906,
2010-06-30, 02:02:05,VALID,1000.62,VALID,0,VALID,88.2823,VALID,0,VALID,23.428,VALID,155,VALID,1.28906,
2010-06-30, 02:03:05,VALID,1000.62,VALID,0,VALID,87.7559,VALID,0,VALID,23.5061,VALID,155,VALID,1.15,
2010-06-30, 02:04:05,VALID,1000.62,VALID,0,VALID,87.6414,VALID,0,VALID,23.5256,VALID,143,VALID,1.21836,
2010-06-30, 02:05:05,VALID,1000.61,VALID,0,VALID,87.672,VALID,0,VALID,23.5256,VALID,145,VALID,1.08828,
2010-06-30, 02:06:04,VALID,1000.6,VALID,0,VALID,87.7864,VALID,0,VALID,23.5061,VALID,148,VALID,1.13359,
2010-06-30, 02:07:04,VALID,1000.57,VALID,0,VALID,87.8017,VALID,0,VALID,23.5061,VALID,161,VALID,1.05664,
2010-06-30, 02:08:04,VALID,1000.55,VALID,0,VALID,87.6872,VALID,0,VALID,23.4866,VALID,161,VALID,0.592969,
2010-06-30, 02:09:04,VALID,1000.53,VALID,0,VALID,87.733,VALID,0,VALID,23.4671,VALID,161,VALID,0.420703,
2010-06-30, 02:10:04,VALID,1000.52,VALID,0,VALID,87.7635,VALID,0,VALID,23.4475,VALID,161,VALID,0.146484,
2010-06-30, 02:11:04,VALID,1000.5,VALID,0,VALID,88.0153,VALID,0,VALID,23.428,VALID,161,VALID,0.0222656,
2010-06-30, 02:12:04,VALID,1000.47,VALID,0,VALID,88.1984,VALID,0,VALID,23.3695,VALID,160,VALID,0.111719,
2010-06-30, 02:13:04,VALID,1000.48,VALID,0,VALID,88.5723,VALID,0,VALID,23.3305,VALID,67,VALID,0.392969,
2010-06-30, 02:14:04,VALID,1000.46,VALID,0,VALID,88.9995,VALID,0,VALID,23.2915,VALID,67,VALID,0,
2010-06-30, 02:15:04,VALID,1000.46,VALID,0,VALID,89.1826,VALID,0,VALID,23.2915,VALID,67,VALID,0,
2010-06-30, 02:16:04,VALID,1000.49,VALID,0,VALID,88.8774,VALID,0,VALID,23.2719,VALID,67,VALID,0,
2010-06-30, 02:17:04,VALID,1000.53,VALID,0,VALID,89.0987,VALID,0,VALID,23.2329,VALID,67,VALID,0,
2010-06-30, 02:18:04,VALID,1000.52,VALID,0,VALID,89.2513,VALID,0,VALID,23.1744,VALID,67,VALID,0,
2010-06-30, 02:19:04,VALID,1000.5,VALID,0,VALID,89.4649,VALID,0,VALID,23.1549,VALID,67,VALID,0,
2010-06-30, 02:20:04,VALID,1000.5,VALID,0,VALID,89.7625,VALID,0,VALID,23.1354,VALID,67,VALID,0,
2010-06-30, 02:21:04,VALID,1000.5,VALID,0,VALID,89.9303,VALID,0,VALID,23.1159,VALID,67,VALID,0,
2010-06-30, 02:22:04,VALID,1000.47,VALID,0,VALID,90.0143,VALID,0,VALID,23.1159,VALID,67,VALID,0,
2010-06-30, 02:23:04,VALID,1000.45,VALID,0,VALID,89.9914,VALID,0,VALID,23.1159,VALID,67,VALID,0,
2010-06-30, 02:24:04,VALID,1000.41,VALID,0,VALID,90.0524,VALID,0,VALID,23.1159,VALID,67,VALID,0,
2010-06-30, 02:25:04,VALID,1000.4,VALID,0,VALID,90.1897,VALID,0,VALID,23.1159,VALID,67,VALID,0,
2010-06-30, 02:26:04,VALID,1000.41,VALID,0,VALID,90.1745,VALID,0,VALID,23.1354,VALID,67,VALID,0,
2010-06-30, 02:27:04,VALID,1000.4,VALID,0,VALID,90.0906,VALID,0,VALID,23.1159,VALID,67,VALID,0,
2010-06-30, 02:28:04,VALID,1000.37,VALID,0,VALID,89.9609,VALID,0,VALID,23.1354,VALID,67,VALID,0,
2010-06-30, 02:29:04,VALID,1000.37,VALID,0,VALID,89.8464,VALID,0,VALID,23.1744,VALID,67,VALID,0,
2010-06-30, 02:30:04,VALID,1000.37,VALID,0,VALID,89.6251,VALID,0,VALID,23.1939,VALID,67,VALID,0,
2010-06-30, 02:31:04,VALID,1000.37,VALID,0,VALID,89.587,VALID,0,VALID,23.1744,VALID,67,VALID,0,
2010-06-30, 02:32:04,VALID,1000.37,VALID,0,VALID,89.4802,VALID,0,VALID,23.1744,VALID,67,VALID,0,
2010-06-30, 02:33:04,VALID,1000.41,VALID,0,VALID,89.6175,VALID,0,VALID,23.1549,VALID,67,VALID,0,
2010-06-30, 02:34:04,VALID,1000.39,VALID,0,VALID,89.7014,VALID,0,VALID,23.1354,VALID,67,VALID,0,
2010-06-30, 02:35:04,VALID,1000.4,VALID,0,VALID,89.6099,VALID,0,VALID,23.1549,VALID,67,VALID,0.187109,
2010-06-30, 02:36:04,VALID,1000.42,VALID,0,VALID,89.5107,VALID,0,VALID,23.1939,VALID,67,VALID,0.558594,
2010-06-30, 02:37:04,VALID,1000.41,VALID,0,VALID,89.2818,VALID,0,VALID,23.2329,VALID,67,VALID,0.571484,
2010-06-30, 02:38:04,VALID,1000.39,VALID,0,VALID,89.2971,VALID,0,VALID,23.2719,VALID,67,VALID,0.654688,
2010-06-30, 02:39:04,VALID,1000.38,VALID,0,VALID,89.3963,VALID,0,VALID,23.2719,VALID,67,VALID,0.683984,
2010-06-30, 02:40:04,VALID,1000.41,VALID,0,VALID,89.381,VALID,0,VALID,23.2915,VALID,67,VALID,0.685547,
2010-06-30, 02:41:04,VALID,1000.43,VALID,0,VALID,89.175,VALID,0,VALID,23.2719,VALID,61,VALID,0.945313,
2010-06-30, 02:42:04,VALID,1000.43,VALID,0,VALID,89.0224,VALID,0,VALID,23.2134,VALID,61,VALID,0.982031,
2010-06-30, 02:43:04,VALID,1000.4,VALID,0,VALID,89.1979,VALID,0,VALID,23.1354,VALID,61,VALID,0.686328,
2010-06-30, 02:44:04,VALID,1000.45,VALID,0,VALID,89.8083,VALID,0,VALID,23.0964,VALID,61,VALID,0.416016,
2010-06-30, 02:45:04,VALID,1000.46,VALID,0,VALID,89.6251,VALID,0,VALID,23.0964,VALID,85,VALID,0.688281,
2010-06-30, 02:46:04,VALID,1000.44,VALID,0,VALID,89.6404,VALID,0,VALID,23.0573,VALID,95,VALID,0.826563,
2010-06-30, 02:47:04,VALID,1000.44,VALID,0,VALID,89.938,VALID,0,VALID,23.0183,VALID,95,VALID,0.788281,
2010-06-30, 02:48:04,VALID,1000.39,VALID,0,VALID,90.1821,VALID,0,VALID,23.0183,VALID,106,VALID,0.633984,
2010-06-30, 02:49:04,VALID,1000.36,VALID,0,VALID,89.8846,VALID,0,VALID,23.0378,VALID,116,VALID,0.682031,
2010-06-30, 02:50:04,VALID,1000.3,VALID,0,VALID,89.8388,VALID,0,VALID,23.0769,VALID,102,VALID,0.721484,
2010-06-30, 02:51:04,VALID,1000.28,VALID,0,VALID,89.8998,VALID,0,VALID,23.0573,VALID,78,VALID,0.817187,
2010-06-30, 02:52:04,VALID,1000.25,VALID,0,VALID,89.8769,VALID,0,VALID,23.0378,VALID,78,VALID,0.543359,
2010-06-30, 02:53:04,VALID,1000.19,VALID,0,VALID,89.854,VALID,0,VALID,23.0573,VALID,78,VALID,0.405078,
2010-06-30, 02:54:04,VALID,1000.17,VALID,0,VALID,89.7777,VALID,0,VALID,23.0573,VALID,78,VALID,0.519531,
2010-06-30, 02:55:04,VALID,1000.13,VALID,0,VALID,89.7091,VALID,0,VALID,23.0573,VALID,30,VALID,0.688672,
2010-06-30, 02:56:04,VALID,1000.08,VALID,0,VALID,89.7854,VALID,0,VALID,23.0378,VALID,10,VALID,0.984375,
2010-06-30, 02:57:04,VALID,1000.09,VALID,0,VALID,90.0448,VALID,0,VALID,23.0378,VALID,348,VALID,0.821094,
2010-06-30, 02:58:04,VALID,1000.07,VALID,0,VALID,90.3347,VALID,0,VALID,22.9988,VALID,348,VALID,0.6125,
2010-06-30, 02:59:04,VALID,1000.11,VALID,0,VALID,90.4797,VALID,0,VALID,22.9598,VALID,348,VALID,0.580078,
2010-06-30, 03:00:04,VALID,1000.13,VALID,0,VALID,90.6628,VALID,0,VALID,22.9403,VALID,348,VALID,0.75625,
2010-06-30, 03:01:04,VALID,1000.2,VALID,0,VALID,90.7391,VALID,0,VALID,22.9385,VALID,30,VALID,0.942969,
2010-06-30, 03:02:04,VALID,1000.25,VALID,0,VALID,90.7849,VALID,0,VALID,22.9598,VALID,38,VALID,1.02578,
2010-06-30, 03:03:04,VALID,1000.31,VALID,0,VALID,90.678,VALID,0,VALID,22.9793,VALID,44,VALID,1.0418,
2010-06-30, 03:04:04,VALID,1000.35,VALID,0,VALID,90.3118,VALID,0,VALID,22.9793,VALID,65,VALID,1.21211,
2010-06-30, 03:05:04,VALID,1000.37,VALID,0,VALID,90.2431,VALID,0,VALID,22.9403,VALID,67,VALID,1.22734,
2010-06-30, 03:06:04,VALID,1000.38,VALID,0,VALID,90.205,VALID,0,VALID,22.9403,VALID,74,VALID,1.09961,
2010-06-30, 03:07:04,VALID,1000.43,VALID,0,VALID,90.1668,VALID,0,VALID,22.8818,VALID,98,VALID,1.35508,
2010-06-30, 03:08:04,VALID,1000.42,VALID,0,VALID,90.4644,VALID,0,VALID,22.8623,VALID,99,VALID,1.11719,
2010-06-30, 03:09:04,VALID,1000.46,VALID,0,VALID,90.678,VALID,0,VALID,22.8215,VALID,110,VALID,0.987109,
2010-06-30, 03:10:04,VALID,1000.46,VALID,0,VALID,90.9985,VALID,0,VALID,22.8232,VALID,129,VALID,1.17773,
2010-06-30, 03:11:04,VALID,1000.48,VALID,0,VALID,91.2426,VALID,0,VALID,22.8232,VALID,135,VALID,1.21289,
2010-06-30, 03:12:04,VALID,1000.5,VALID,0,VALID,91.2579,VALID,0,VALID,22.8623,VALID,141,VALID,1.20625,
2010-06-30, 03:13:04,VALID,1000.5,VALID,0,VALID,91.0137,VALID,0,VALID,22.9208,VALID,141,VALID,1.08594,
2010-06-30, 03:14:04,VALID,1000.52,VALID,0,VALID,90.5712,VALID,0,VALID,22.9793,VALID,137,VALID,0.997656,
2010-06-30, 03:15:04,VALID,1000.53,VALID,0,VALID,90.0982,VALID,0,VALID,23.0378,VALID,137,VALID,0.935547,
2010-06-30, 03:16:04,VALID,1000.52,VALID,0,VALID,89.3581,VALID,0,VALID,23.0769,VALID,150,VALID,1.06562,
2010-06-30, 03:17:04,VALID,1000.53,VALID,0,VALID,88.8164,VALID,0,VALID,23.1354,VALID,150,VALID,0.985156,
2010-06-30, 03:18:04,VALID,1000.56,VALID,0,VALID,88.6791,VALID,0,VALID,23.1921,VALID,150,VALID,0.704297,
2010-06-30, 03:19:04,VALID,1000.52,VALID,0,VALID,88.5112,VALID,0,VALID,23.2329,VALID,150,VALID,0.716016,
2010-06-30, 03:20:04,VALID,1000.54,VALID,0,VALID,88.4578,VALID,0,VALID,23.2915,VALID,148,VALID,0.812109,
2010-06-30, 03:21:04,VALID,1000.53,VALID,0,VALID,88.1908,VALID,0,VALID,23.35,VALID,148,VALID,0.533984,
2010-06-30, 03:22:04,VALID,1000.51,VALID,0,VALID,88.2594,VALID,0,VALID,23.389,VALID,148,VALID,0.680469,
2010-06-30, 03:23:04,VALID,1000.49,VALID,0,VALID,88.4502,VALID,0,VALID,23.3872,VALID,148,VALID,0.534375,
2010-06-30, 03:24:04,VALID,1000.48,VALID,0,VALID,88.4273,VALID,0,VALID,23.4085,VALID,148,VALID,0.620313,
2010-06-30, 03:25:04,VALID,1000.48,VALID,0,VALID,88.4044,VALID,0,VALID,23.4085,VALID,148,VALID,0.609375,
2010-06-30, 03:26:04,VALID,1000.47,VALID,0,VALID,88.3434,VALID,0,VALID,23.428,VALID,148,VALID,0.4,
2010-06-30, 03:27:04,VALID,1000.49,VALID,0,VALID,88.2747,VALID,0,VALID,23.4067,VALID,148,VALID,0.304297,
2010-06-30, 03:28:04,VALID,1000.47,VALID,0,VALID,88.1908,VALID,0,VALID,23.4475,VALID,148,VALID,0.234375,
2010-06-30, 03:29:04,VALID,1000.48,VALID,0,VALID,88.0687,VALID,0,VALID,23.4263,VALID,148,VALID,0,
2010-06-30, 03:30:04,VALID,1000.46,VALID,0,VALID,88.2823,VALID,0,VALID,23.4671,VALID,148,VALID,0,
2010-06-30, 03:31:04,VALID,1000.44,VALID,0,VALID,88.29,VALID,0,VALID,23.4458,VALID,148,VALID,0,
2010-06-30, 03:32:04,VALID,1000.41,VALID,0,VALID,88.4502,VALID,0,VALID,23.4866,VALID,213,VALID,0.00664063,
2010-06-30, 03:33:04,VALID,1000.41,VALID,0,VALID,88.3434,VALID,0,VALID,23.4653,VALID,253,VALID,0.596094,
2010-06-30, 03:34:04,VALID,1000.37,VALID,0,VALID,88.3815,VALID,0,VALID,23.5061,VALID,253,VALID,0.441797,
2010-06-30, 03:35:04,VALID,1000.33,VALID,0,VALID,88.4578,VALID,0,VALID,23.4848,VALID,253,VALID,0.451172,
2010-06-30, 03:36:04,VALID,1000.3,VALID,0,VALID,88.0611,VALID,0,VALID,23.5451,VALID,253,VALID,0.583984,
2010-06-30, 03:37:04,VALID,1000.26,VALID,0,VALID,87.9161,VALID,0,VALID,23.5238,VALID,253,VALID,0.659375,
2010-06-30, 03:38:04,VALID,1000.21,VALID,0,VALID,88.4502,VALID,0.112286,VALID,23.5238,VALID,259,VALID,0.580859,
2010-06-30, 03:39:04,VALID,1000.15,VALID,0,VALID,88.5341,VALID,0,VALID,23.5061,VALID,272,VALID,0.889453,
2010-06-30, 03:40:04,VALID,1000.09,VALID,0,VALID,88.6867,VALID,0,VALID,23.4458,VALID,278,VALID,0.941797,
2010-06-30, 03:41:04,VALID,1000.07,VALID,0,VALID,88.6791,VALID,0.112286,VALID,23.428,VALID,282,VALID,0.948828,
2010-06-30, 03:42:04,VALID,1000.04,VALID,0,VALID,88.6943,VALID,0,VALID,23.389,VALID,285,VALID,0.907422,
2010-06-30, 03:43:04,VALID,1000.02,VALID,0,VALID,88.7706,VALID,0,VALID,23.3695,VALID,285,VALID,0.639453,
2010-06-30, 03:44:04,VALID,1000.02,VALID,0,VALID,88.8622,VALID,0,VALID,23.3305,VALID,285,VALID,0.435547,
2010-06-30, 03:45:04,VALID,1000.03,VALID,0,VALID,88.7554,VALID,0,VALID,23.2915,VALID,285,VALID,0.298047,
2010-06-30, 03:46:04,VALID,1000.05,VALID,0,VALID,88.6562,VALID,0,VALID,23.2702,VALID,285,VALID,0.140234,
2010-06-30, 03:47:04,VALID,1000.04,VALID,0,VALID,88.908,VALID,0,VALID,23.2915,VALID,285,VALID,0.0734375,
2010-06-30, 03:48:04,VALID,1000.09,VALID,0,VALID,88.9843,VALID,0,VALID,23.2524,VALID,285,VALID,0.0320312,